TimeEDT,TemperatureF,Dew PointF,Humidity,Sea Level PressureIn,VisibilityMPH,Wind Direction,Wind SpeedMPH,Gust SpeedMPH,PrecipitationIn,Events,Conditions,WindDirDegrees,DateUTC
12:56 AM,59.0,57.9,96,30.09,8.0,East,5.8,-,N/A,,Clear,80,2013-08-20 04:56:00
1:56 AM,59.0,57.9,96,30.09,7.0,East,5.8,-,N/A,,Clear,90,2013-08-20 05:56:00
2:56 AM,57.9,56.8,96,30.09,5.0,East,4.6,-,N/A,,Clear,90,2013-08-20 06:56:00
3:56 AM,57.9,56.8,96,30.10,5.0,East,5.8,-,N/A,,Clear,90,2013-08-20 07:56:00
4:56 AM,56.8,55.9,97,30.12,5.0,East,4.6,-,N/A,,Overcast,100,2013-08-20 08:56:00
5:56 AM,55.9,55.9,100,30.13,4.0,East,5.8,-,N/A,,Clear,80,2013-08-20 09:56:00
6:30 AM,55.4,55.4,100,30.14,10.0,East,4.6,-,N/A,,Clear,90,2013-08-20 10:30:00
6:56 AM,55.9,54.9,96,30.15,10.0,East,4.6,-,N/A,,Clear,90,2013-08-20 10:56:00
7:56 AM,59.9,57.9,93,30.17,10.0,East,3.5,-,N/A,,Clear,90,2013-08-20 11:56:00
8:56 AM,66.9,61.0,81,30.17,10.0,Calm,Calm,-,N/A,,Clear,0,2013-08-20 12:56:00
9:56 AM,72.9,59.0,62,30.18,10.0,Calm,Calm,-,N/A,,Clear,0,2013-08-20 13:56:00
10:56 AM,74.8,59.9,60,30.17,10.0,Calm,Calm,-,N/A,,Clear,0,2013-08-20 14:56:00
11:56 AM,75.9,59.9,57,30.17,10.0,Variable,3.5,-,N/A,,Scattered Clouds,0,2013-08-20 15:56:00
12:56 PM,79.0,59.0,50,30.17,10.0,Calm,Calm,-,N/A,,Scattered Clouds,0,2013-08-20 16:56:00
1:56 PM,79.9,59.0,49,30.16,10.0,WNW,3.5,-,N/A,,Scattered Clouds,290,2013-08-20 17:56:00
2:56 PM,79.9,59.9,50,30.15,10.0,Variable,4.6,-,N/A,,Partly Cloudy,0,2013-08-20 18:56:00
3:56 PM,79.9,59.0,49,30.14,10.0,NNW,4.6,-,N/A,,Partly Cloudy,330,2013-08-20 19:56:00
4:56 PM,81.0,59.0,47,30.14,10.0,WSW,4.6,-,N/A,,Partly Cloudy,250,2013-08-20 20:56:00
5:56 PM,79.9,57.9,47,30.14,10.0,West,3.5,-,N/A,,Partly Cloudy,270,2013-08-20 21:56:00
6:56 PM,75.9,64.9,69,30.13,10.0,Calm,Calm,-,N/A,,Clear,0,2013-08-20 22:56:00
7:56 PM,68.9,63.9,84,30.14,10.0,Calm,Calm,-,N/A,,Clear,0,2013-08-20 23:56:00
8:56 PM,64.9,63.0,93,30.16,7.0,East,3.5,-,N/A,,Clear,90,2013-08-21 00:56:00
9:56 PM,63.9,61.9,93,30.17,8.0,East,3.5,-,N/A,,Clear,80,2013-08-21 01:56:00
10:56 PM,63.9,61.0,90,30.17,8.0,East,4.6,-,N/A,,Clear,90,2013-08-21 02:56:00
11:56 PM,61.9,59.9,93,30.18,7.0,East,5.8,-,N/A,,Clear,80,2013-08-21 03:56:00